Terug naar catalogus

GJZ 01

ActiefWetenschapLEO
NORAD 62290·PAYLOAD·🇨🇳 China

Gelanceerd Dec 12, 2024 vanaf Jiuquan Satellite Launch Center

Loading…

Volgende Passages (komende 24 uur)

TLE

VersSource: Space-Track

Epoch: Sep 14, 2026, 21:58 UTC

1 62290U 24238A   26257.91586661 -.00000051  00000-0  70134-4 0  9998
2 62290  59.9156  15.0564 0016542 343.1224  16.9232 13.75232907 87944

Volg GJZ 01 in realtime met AllMySat

Download on the App Store